"Time","Temp","Dewpoint","Humidity","Pressure","Direction","Speed","Gust","Precip","PrecipRate"
"00:04:56","69.9","68.1","94","29.92","106","0","0","0.00","0.01"
"00:09:59","70","68.5","94.9","29.92","106","0.4","2.4","0.00","0.00"
"00:14:56","70.3","69.1","96","29.94","105","0.6","2.4","0.00","0.00"
"00:19:58","70.4","69.2","96","29.94","105","0","1.2","0.00","0.00"
"00:24:59","70.4","69.2","96","29.94","105","0","1.2","0.00","0.00"
"00:29:57","70.4","69.2","96","29.94","105","0","0","0.00","0.00"
"00:34:59","70.3","69.1","95.9","29.94","105","0","0","0.00","0.00"
"00:39:57","70.4","69.2","96","29.94","105","0","0","0.00","0.00"
"00:44:59","70.4","69.2","96","29.94","105","0","0","0.00","0.00"
"00:49:56","70.4","69.2","96","29.94","105","0","1.2","0.00","0.00"
"00:54:58","70.4","69.2","96","29.94","105","0","0","0.00","0.00"
"00:59:59","70.4","69.2","96","29.94","105","0.1","1.2","0.00","0.00"
"01:04:57","70.3","69.1","96","29.94","105","0.1","1.2","0.00","0.00"
"01:09:56","70.2","69","96","29.94","105","0.1","2.4","0.00","0.00"
"01:14:59","70.1","68.9","96","29.94","105","0.3","2.4","0.00","0.00"
"01:19:56","70.1","68.9","96","29.93","105","0.1","1.2","0.00","0.00"
"01:24:59","70.1","68.9","96","29.93","105","0.3","2.4","0.00","0.00"
"01:29:56","70.1","68.9","96","29.94","75","1.4","3.6","0.00","0.00"
"01:34:58","70.2","69","96","29.94","32","1.2","3.6","0.00","0.00"
"01:39:59","70.3","69.1","96","29.94","32","1.4","3.6","0.00","0.00"
"01:44:57","70.3","69.1","96","29.94","32","0.2","2.3","0.00","0.00"
"01:49:58","70.3","69.1","96","29.94","32","0","1.2","0.00","0.00"
"01:54:56","70.3","69.1","96","29.94","32","0","1.2","0.00","0.00"
"01:59:57","70.2","69","96","29.94","32","0.1","2.4","0.00","0.00"
"02:04:59","70.2","69","96","29.94","32","0.2","2.3","0.00","0.00"
"02:09:59","70.2","69","96","29.94","32","0","0","0.00","0.00"
"02:14:58","70.1","68.9","96","29.94","32","0","0","0.00","0.00"
"02:19:59","70","68.8","96","29.94","32","0","0","0.00","0.00"
"02:24:57","69.9","68.7","96","29.94","32","0","0","0.00","0.00"
"02:29:59","69.9","68.7","96","29.94","32","0","0","0.00","0.00"
"02:34:57","69.7","68.5","96","29.93","32","0","0","0.00","0.00"
"02:39:58","69.6","68.4","96","29.93","32","0","0","0.00","0.00"
"02:44:56","69.5","68.3","96","29.94","32","0","0","0.00","0.00"
"02:49:58","69.4","68.2","96","29.94","32","0","0","0.00","0.00"
"02:54:59","69.4","68.2","96","29.94","32","0","0","0.00","0.00"
"02:59:56","69.3","68.1","96","29.94","32","0","0","0.00","0.00"
"03:04:56","69.3","68.1","96","29.93","32","0","0","0.00","0.00"
"03:09:56","69.3","68.1","96","29.93","32","0","0","0.00","0.00"
"03:14:59","69.3","68.1","96.1","29.93","32","0","0","0.00","0.00"
"03:19:56","69.2","68","96.2","29.92","32","0","0","0.00","0.00"
"03:24:58","69","67.9","96.2","29.92","32","0","0","0.00","0.00"
"03:29:59","68.9","67.7","96","29.92","32","0","0","0.00","0.00"
"03:34:57","68.8","67.6","96","29.92","32","0","0","0.00","0.00"
"03:39:59","68.7","67.8","96.8","29.92","32","0","0","0.00","0.00"
"03:44:57","68.6","67.7","97","29.93","32","0","0","0.00","0.00"
"03:49:59","68.6","67.7","97","29.93","32","0","0","0.00","0.00"
"03:54:57","68.6","67.7","97","29.93","32","0","0","0.00","0.00"
"03:59:57","68.5","67.6","97","29.93","32","0","0","0.00","0.00"
"04:04:59","68.5","67.6","97","29.93","32","0","0","0.00","0.00"
"04:09:59","68.4","67.5","97","29.93","32","0","0","0.00","0.00"
"04:14:58","68.3","67.4","97","29.94","32","0","0","0.00","0.00"
"04:19:59","68.3","67.4","97","29.94","32","0","0","0.00","0.00"
"04:24:57","68.1","67.2","97","29.94","32","0","0","0.00","0.00"
"04:29:56","68","67.1","97","29.94","32","0","0","0.00","0.00"
"04:34:59","68","67.1","97","29.94","32","0","0","0.00","0.00"
"04:39:56","67.9","67","97","29.94","32","0","0","0.00","0.00"
"04:44:58","67.8","66.9","97","29.94","32","0","0","0.00","0.00"
"04:49:59","67.8","66.9","97","29.94","32","0","0","0.00","0.00"
"04:54:57","67.8","66.9","97","29.94","32","0","0","0.00","0.00"
"04:59:57","67.7","66.8","97","29.94","32","0","0","0.00","0.00"
"05:04:59","67.6","66.7","97","29.94","32","0","0","0.00","0.00"
"05:09:59","67.6","66.7","97","29.94","32","0","0","0.00","0.00"
"05:14:57","67.5","66.6","97","29.94","32","0","0","0.00","0.00"
"05:19:58","67.4","66.5","97","29.94","32","0","0","0.00","0.00"
"05:24:56","67.2","66.3","97","29.94","32","0","0","0.00","0.00"
"05:29:56","67.2","66.3","97","29.94","32","0","0","0.00","0.00"
"05:34:57","67.1","66.2","97","29.94","32","0","0","0.00","0.00"
"05:39:59","66.9","66","97","29.94","32","0","0","0.00","0.00"
"05:44:56","66.7","65.8","97","29.94","32","0","0","0.00","0.00"
"05:49:57","66.7","65.8","97","29.94","32","0","0","0.00","0.00"
"05:54:59","66.6","65.7","97","29.94","32","0","0","0.00","0.00"
"05:59:56","66.5","65.6","97","29.95","115","0","0","0.00","0.00"
"06:04:57","66.3","65.4","97","29.95","115","0","0","0.00","0.00"
"06:09:58","66.2","65.3","97","29.95","115","0","0","0.00","0.00"
"06:14:56","66.2","65.3","97","29.95","115","0","0","0.00","0.00"
"06:19:57","66.1","65.2","97","29.95","115","0","0","0.00","0.00"
"06:24:59","66","65.1","97","29.95","115","0","0","0.00","0.00"
"06:29:56","65.9","65","97","29.95","115","0","0","0.00","0.00"
"06:34:57","65.8","64.9","97","29.95","115","0","0","0.00","0.00"
"06:39:59","65.6","64.7","97","29.95","115","0","0","0.00","0.00"
"06:44:56","65.5","64.6","97","29.96","115","0","0","0.00","0.00"
"06:49:56","65.4","64.5","97","29.96","115","0","0","0.00","0.00"
"06:54:56","65.4","64.5","97","29.96","115","0","0","0.00","0.00"
"06:59:56","65.5","64.6","97","29.96","115","0","0","0.00","0.00"
"07:04:57","65.5","64.6","97","29.96","115","0","0","0.00","0.00"
"07:09:57","65.5","64.6","97","29.96","113","0","0","0.00","0.00"
"07:14:58","65.6","64.7","97","29.96","113","0","0","0.00","0.00"
"07:19:58","66.1","65.5","97.9","29.96","113","0","0","0.00","0.00"
"07:24:59","66.4","65.8","98","29.96","113","0","0","0.00","0.00"
"07:29:59","66.6","66","98","29.97","113","0.5","2.4","0.00","0.00"
"07:34:56","67","66.4","98","29.97","113","0.1","1.2","0.00","0.00"
"07:39:56","67.5","66.9","98","29.97","113","0","0","0.00","0.00"
"07:44:57","68","67.4","98","29.97","113","0","0","0.00","0.00"
"07:49:57","68.3","67.7","98","29.97","113","0.1","2.4","0.00","0.00"
"07:54:58","68.6","68","98","29.97","113","0.7","3.6","0.00","0.00"
"07:59:58","68.9","68.3","98","29.97","125","0.9","3.6","0.00","0.00"
"08:04:56","69.2","68.6","98","29.97","127","0.3","2.4","0.00","0.00"
"08:09:59","69.7","69.1","98","29.97","126","0.3","2.4","0.00","0.00"
"08:14:57","70.1","69.4","97.7","29.98","125","0.5","2.4","0.00","0.00"
"08:19:57","70.5","69.6","97","29.98","50","2.1","6","0.00","0.00"
"08:24:57","70.9","69.7","96.1","29.98","10","2.2","6","0.00","0.00"
"08:29:57","71.4","69.9","95.2","29.98","347","2.9","7.2","0.00","0.00"
"08:34:57","71.9","70.1","93.9","29.98","359","3.3","10.8","0.00","0.00"
"08:39:58","72.4","69.9","92","29.98","1","3.5","12","0.00","0.00"
"08:44:58","72.8","70.1","91.2","29.98","359","2.9","8.4","0.00","0.00"
"08:49:58","73.1","70.3","90.7","29.98","356","2.9","6","0.00","0.00"
"08:54:58","73.4","70.1","89.3","29.98","345","3.7","10.8","0.00","0.00"
"08:59:58","73.7","69.9","88.2","29.98","347","2.2","7.2","0.00","0.00"
"09:04:59","73.9","69.9","87.4","29.98","343","2.1","4.8","0.00","0.00"
"09:09:58","74.1","69.9","86.6","29.98","346","2.3","6","0.00","0.00"
"09:14:56","74.3","69.7","85.7","29.98","350","2.5","6","0.00","0.00"
"09:19:59","74.6","70","85.8","29.98","324","2.3","6","0.00","0.00"
"09:24:59","74.7","70.1","85.7","29.98","333","1.8","6","0.00","0.00"
"09:29:59","74.9","70.3","85.4","29.98","345","1.9","4.8","0.00","0.00"
"09:34:59","75.2","70.4","84.8","29.98","350","3.5","8.4","0.00","0.00"
"09:39:56","75.4","70.4","84.4","29.98","346","3.6","7.2","0.00","0.00"
"09:44:56","75.5","70.3","84","30.00","344","4","7.2","0.00","0.00"
"09:49:56","75.7","70.4","83.7","30.00","342","3.9","9.6","0.00","0.00"
"09:54:56","75.9","70.5","83.3","30.00","350","2.8","8.4","0.00","0.00"
"09:59:56","76.3","70.8","83.2","30.00","344","3.2","8.1","0.00","0.00"
"10:04:57","76.5","70.7","82.2","30.00","330","4.1","12","0.00","0.00"
"10:09:59","76.7","70.8","82.2","30.00","339","3.8","10.4","0.00","0.00"
"10:14:57","76.9","70.7","81.4","30.00","338","3.7","12","0.00","0.00"
"10:19:57","77.1","71.2","82","30.00","339","2.9","7.2","0.00","0.00"
"10:24:57","77.4","71.3","81.7","30.00","340","2.5","8.4","0.00","0.00"
"10:29:56","77.6","71.5","81.5","30.00","345","3.1","9.6","0.00","0.00"
"10:34:57","77.9","71.5","80.9","29.99","343","0.5","2.4","0.00","0.00"
"10:39:57","77.9","71.5","80.8","29.99","28","0.7","3.6","0.00","0.00"
"10:44:57","78.1","71.6","80.4","29.99","6","1.6","7.2","0.00","0.00"
"10:49:57","78.2","71.5","79.9","29.99","353","1","4.6","0.00","0.00"
"10:54:57","78.2","71.6","80.1","29.99","352","1.6","7.2","0.00","0.00"
"10:59:57","78.4","72.1","80.8","29.99","348","1","6","0.00","0.00"
"11:04:58","78.7","71.8","79.3","29.99","341","1.9","4.8","0.00","0.00"
"11:09:59","79.3","72.3","79.4","29.99","358","1","7.2","0.00","0.00"
"11:14:56","78.9","71.6","78.2","30.00","345","3.8","7.2","0.00","0.00"
"11:19:57","78.7","71.4","78.3","30.00","346","2.8","7.2","0.00","0.00"
"11:24:58","78.6","71.3","78.5","30.00","331","3.5","7.2","0.00","0.00"
"11:29:59","79.6","72.2","78.1","30.00","312","1.8","6","0.00","0.00"
"11:34:57","79.6","71.6","76.6","30.00","299","1.3","4.8","0.00","0.00"
"11:39:59","80","72.4","77.7","30.00","165","1.6","6","0.00","0.00"
"11:44:58","80.5","72.6","76.9","30.00","148","1.3","5.8","0.00","0.00"
"11:49:59","81.1","72.8","75.8","30.00","62","1.1","4.8","0.00","0.00"
"11:54:56","81.5","72.5","74.5","30.00","34","1.9","4.6","0.00","0.00"
"11:59:59","81","71.9","73.9","30.00","23","1.2","7.2","0.00","0.00"
"12:04:56","81.2","71.9","73.6","30.00","340","1.3","6.9","0.00","0.00"
"12:09:57","81.3","72","73.6","30.00","342","0.9","2.4","0.00","0.00"
"12:14:56","82.2","72.9","73.3","30.00","344","1.3","2.4","0.00","0.00"
"12:19:58","82.5","72.7","72.4","29.99","41","2.9","8.4","0.00","0.00"
"12:24:57","82.3","72.2","71.5","29.99","348","0.3","3.5","0.00","0.00"
"12:29:58","82.7","72.3","71","29.99","33","2","7.2","0.00","0.00"
"12:34:56","83.1","72.2","69.8","29.99","111","2","6.9","0.00","0.00"
"12:39:59","83.1","72.1","69.5","29.99","74","1.4","3.6","0.00","0.00"
"12:44:57","83.1","72","69.2","29.99","343","1.5","7.2","0.00","0.00"
"12:49:59","82.5","71.2","68.8","29.99","352","0.9","4.8","0.00","0.00"
"12:54:57","82.3","71","68.8","29.99","74","1.9","4.8","0.00","0.00"
"12:59:59","83.1","71.7","68.4","29.99","39","2.1","6","0.00","0.00"
"13:04:57","83.4","70.8","66","29.98","335","1.8","4.8","0.00","0.00"
"13:09:58","83.7","71.6","67.2","29.98","356","1","3.6","0.00","0.00"
"13:14:58","84.3","72.2","67","29.98","22","1.2","3.5","0.00","0.00"
"13:19:56","84.7","71.7","65.2","29.98","330","2.9","9.6","0.00","0.00"
"13:24:59","84.2","70.4","63.4","29.98","334","3.2","9.2","0.00","0.00"
"13:29:57","84.1","70.9","64.5","29.98","337","2.1","6.9","0.00","0.00"
"13:34:59","84.4","71.4","65.2","29.98","345","1.4","5.8","0.00","0.00"
"13:39:57","85.2","72","64.8","29.98","63","1.8","4.8","0.00","0.00"
"13:44:56","85.4","70.7","61.5","29.98","34","1.4","3.5","0.00","0.00"
"13:49:58","84.9","71","63.2","29.98","26","1.7","9.6","0.00","0.00"
"13:54:56","85.9","69.2","57.6","29.98","338","3.4","8.4","0.00","0.00"
"13:59:58","85.2","68.6","57.8","29.98","323","2.6","10.8","0.00","0.00"
"14:04:57","85.2","70","60.5","29.98","306","0.5","6","0.00","0.00"
"14:09:58","85.4","70.3","60.8","29.98","342","2.8","9.6","0.00","0.00"
"14:14:57","86.2","70.9","60.3","29.98","328","1.8","6","0.00","0.00"
"14:19:59","85.7","70","59.7","29.98","343","1.2","6","0.00","0.00"
"14:24:57","84.6","69.7","61","29.98","345","3.8","9.6","0.00","0.00"
"14:29:58","84.5","69.7","61.2","29.98","332","2.5","10.8","0.00","0.00"
"14:34:57","84.6","68.3","58.1","29.98","322","3.7","10.4","0.00","0.00"
"14:39:59","85.2","68.3","57.2","29.98","349","3.5","8.4","0.00","0.00"
"14:44:58","85.4","69","58.3","29.98","344","2.1","8.4","0.00","0.00"
"14:49:56","85.3","69.5","59.2","29.98","319","1.7","3.6","0.00","0.00"
"14:54:57","85.9","69.5","58.3","29.98","345","1.5","7.2","0.00","0.00"
"14:59:56","85.5","68.4","56.7","29.98","336","3.2","6","0.00","0.00"
"15:04:59","86","66.2","51.7","29.98","13","1.4","3.6","0.00","0.00"
"15:09:56","85.6","65.7","51.4","29.98","78","1.8","6","0.00","0.00"
"15:14:56","85.8","67.7","54.8","29.98","12","1.9","6","0.00","0.00"
"15:19:58","86.7","67.6","53.2","29.97","336","3","9.6","0.00","0.00"
"15:24:57","87","67.1","51.7","29.97","305","2","6","0.00","0.00"
"15:29:59","86.9","66.3","50.6","29.97","275","2.8","6","0.00","0.00"
"15:34:58","86.5","66.1","50.9","29.97","293","3.2","8.4","0.00","0.00"
"15:39:57","86.9","66.7","51.2","29.97","3","1.9","8.1","0.00","0.00"
"15:44:56","87.8","66.9","50","29.97","355","3.7","12","0.00","0.00"
"15:49:59","87.9","66.5","49.2","29.97","337","3.5","8.1","0.00","0.00"
"15:54:58","87.8","66.3","49.2","29.97","300","2.3","6","0.00","0.00"
"15:59:56","87.9","66.8","49.9","29.97","82","2.7","6","0.00","0.00"
"16:04:59","88","66.8","49.7","29.97","334","2.8","8.4","0.00","0.00"
"16:09:56","88.1","66.4","49","29.97","333","2.2","6.9","0.00","0.00"
"16:14:56","87.5","66.4","49.7","29.97","329","0.9","6","0.00","0.00"
"16:19:59","87","66.7","50.9","29.97","299","0.9","4.8","0.00","0.00"
"16:24:58","87.1","65.1","48.1","29.97","286","2.1","4.8","0.00","0.00"
"16:29:56","87.2","65.4","48.5","29.97","283","1.9","4.8","0.00","0.00"
"16:34:59","87.6","65.7","48.3","29.97","288","2.3","7.2","0.00","0.00"
"16:39:58","87.8","65.7","48","29.97","359","2.4","7.2","0.00","0.00"
"16:44:57","88.1","66.3","48.7","29.97","1","1.8","6","0.00","0.00"
"16:49:56","88.2","65.6","47.4","29.97","327","1.5","4.8","0.00","0.00"
"16:54:58","88.4","64.8","45.8","29.97","324","3","7.2","0.00","0.00"
"16:59:57","88.3","64.6","45.4","29.97","331","3.2","6","0.00","0.00"
"17:04:56","88.3","64.4","45.2","29.97","336","2.4","6","0.00","0.00"
"17:09:57","88.4","64.5","45.3","29.97","340","0.6","4.6","0.00","0.00"
"17:14:57","88.4","65.1","46.1","29.97","344","2.2","6","0.00","0.00"
"17:19:59","87.8","64.4","46","29.97","344","1.1","4.8","0.00","0.00"
"17:24:58","87.5","64.6","46.7","29.97","341","2.1","7.2","0.00","0.00"
"17:29:57","87.9","65.2","47","29.97","343","2.6","7.2","0.00","0.00"
"17:34:56","88.3","65.6","47.1","29.97","346","1.2","4.6","0.00","0.00"
"17:39:59","88.5","64.5","45.2","29.97","346","2.3","4.8","0.00","0.00"
"17:44:58","88.2","64.8","46","29.97","294","1.3","4.8","0.00","0.00"
"17:49:57","88","65.2","47","29.96","334","2","4.8","0.00","0.00"
"17:54:56","88","65.1","46.9","29.96","341","2.6","4.8","0.00","0.00"
"17:59:59","87.8","64.4","45.9","29.96","351","1.5","6","0.00","0.00"
"18:04:58","87.9","64.6","46.2","29.96","355","1.5","5.8","0.00","0.00"
"18:09:59","87.7","63.7","44.9","29.96","338","1.4","4.8","0.00","0.00"
"18:14:55","87.6","64.3","46","29.96","336","1.5","4.8","0.00","0.00"
"18:19:58","87.3","64.1","46.2","29.95","339","0.5","3.5","0.00","0.00"
"18:24:58","87.3","63.8","45.7","29.95","355","0.1","1.2","0.00","0.00"
"18:29:58","87.1","63.1","44.8","29.96","355","0.3","2.4","0.00","0.00"
"18:34:58","86.9","62.8","44.7","29.96","355","0.8","4.8","0.00","0.00"
"18:39:58","86.6","63.4","46","29.96","355","0","2.4","0.00","0.00"
"18:44:58","86.3","63.9","47.2","29.96","355","0.3","2.4","0.00","0.00"
"18:49:56","85.9","63.9","48","29.95","355","0.2","2.4","0.00","0.00"
"18:54:56","85.5","64.3","49.2","29.95","355","0","0","0.00","0.00"
"18:59:59","85.2","64.9","50.8","29.95","5","0","0","0.00","0.00"
"19:04:58","84.8","65.8","53.1","29.95","5","0","1.2","0.00","0.00"
"19:09:59","84.6","66.3","54.3","29.95","5","0","0","0.00","0.00"
"19:14:56","84.4","66.3","54.7","29.95","5","0.1","1.2","0.00","0.00"
"19:19:59","84.1","66.4","55.4","29.95","5","0.1","1.2","0.00","0.00"
"19:24:58","83.9","66","55","29.95","5","0.3","2.4","0.00","0.00"
"19:29:57","83.7","65.9","55.2","29.95","5","1","2.4","0.00","0.00"
"19:34:59","83.5","65.6","55","29.95","59","1.3","4.8","0.00","0.00"
"19:39:59","83.3","65.8","55.7","29.95","107","0.5","4.6","0.00","0.00"
"19:44:58","83.1","65.8","56.1","29.95","107","0","1.2","0.00","0.00"
"19:49:57","83","66","56.7","29.95","104","0","1.2","0.00","0.00"
"19:54:57","82.9","66","56.6","29.95","104","0.2","2.4","0.00","0.00"
"19:59:57","82.8","66.3","57.7","29.95","104","0","0","0.00","0.00"
"20:04:57","82.5","66.3","58.1","29.95","104","0","0","0.00","0.00"
"20:09:58","82.2","66.5","59","29.95","60","0","1.2","0.00","0.00"
"20:14:59","81.8","66.5","59.8","29.96","60","0.1","1.2","0.00","0.00"
"20:19:58","81.4","66.2","60","29.96","60","0.4","1.2","0.00","0.00"
"20:24:58","80.8","66.4","61.5","29.96","60","0","0","0.00","0.00"
"20:29:58","80.2","66.5","63.1","29.96","63","0","1.2","0.00","0.00"
"20:34:58","79.4","66.2","64","29.96","63","0","0","0.00","0.00"
"20:39:57","78.8","66.6","66.2","29.96","63","0","0","0.00","0.00"
"20:44:56","78.2","66.6","67.7","29.96","63","0","0","0.00","0.00"
"20:49:58","77.5","66.5","69","29.96","63","0","0","0.00","0.00"
"20:54:56","77","66.3","69.6","29.96","63","0","0","0.00","0.00"
"20:59:57","76.6","66.4","70.6","29.97","63","0","0","0.00","0.00"
"21:04:59","76.3","66.5","71.8","29.97","63","0","0","0.00","0.00"
"21:09:59","75.8","66.3","72.4","29.97","63","0","0","0.00","0.00"
"21:14:58","75.5","66.3","73.3","29.97","63","0","0","0.00","0.00"
"21:19:56","75.2","66.3","74","29.97","63","0","0","0.00","0.00"
"21:24:58","75","66.1","74","29.97","63","0","0","0.00","0.00"
"21:29:56","74.8","66.3","74.9","29.98","63","0","0","0.00","0.00"
"21:34:58","74.6","66.3","75.5","29.98","63","0","0","0.00","0.00"
"21:39:56","74.3","66.2","76","29.98","63","0","0","0.00","0.00"
"21:44:59","74","66","76.2","29.98","63","0","0","0.00","0.00"
"21:49:56","73.9","66.2","77","29.98","63","0","0","0.00","0.00"
"21:54:58","74","66.3","77","29.98","63","0","0","0.00","0.00"
"21:59:56","74","66.3","77","29.98","63","0","0","0.00","0.00"
"22:04:58","73.7","66.4","77.9","29.98","63","0","0","0.00","0.00"
"22:09:58","73.4","66.2","78.2","29.98","63","0","0","0.00","0.00"
"22:14:57","73.1","66.3","79.2","29.98","63","0","0","0.00","0.00"
"22:19:58","73","66.5","80","29.98","63","0","0","0.00","0.00"
"22:24:57","73","66.5","80","29.98","63","0","0","0.00","0.00"
"22:29:59","72.9","66.4","80","29.98","63","0","0","0.00","0.00"
"22:34:57","72.7","66.3","80.6","29.98","63","0","0","0.00","0.00"
"22:39:59","72.4","66.2","81","29.98","63","0","0","0.00","0.00"
"22:44:58","72.2","66","81.1","29.98","63","0","0","0.00","0.00"
"22:49:59","72.1","66.2","81.9","29.98","63","0","0","0.00","0.00"
"22:54:57","71.9","66.1","82","29.98","63","0","0","0.00","0.00"
"22:59:59","71.7","66.2","82.8","29.98","63","0","0","0.00","0.00"
"23:04:57","71.5","66.1","83","29.98","63","0","0","0.00","0.00"
"23:09:57","71.2","66","83.4","29.98","63","0","0","0.00","0.00"
"23:14:56","71.1","66","84","29.99","63","0","0","0.00","0.00"
"23:19:56","71","65.9","84.2","29.99","63","0","0","0.00","0.00"
"23:24:59","71","66.3","85","29.99","63","0","0","0.00","0.00"
"23:29:56","71","66","84.1","29.99","63","0","0","0.00","0.00"
"23:34:59","71.1","66","84","29.99","63","0","0","0.00","0.00"
"23:39:57","71","65.9","84","29.99","63","0","0","0.00","0.00"
"23:44:59","70.9","66","84.6","30.00","63","0","0","0.00","0.00"
"23:49:57","70.7","66","85","30.00","63","0","0","0.00","0.00"
